TimeCST,TemperatureF,Dew PointF,Humidity,Sea Level PressureIn,VisibilityMPH,Wind Direction,Wind SpeedMPH,Gust SpeedMPH,PrecipitationIn,Events,Conditions,WindDirDegrees,DateUTC
4:54 AM,12.2,6.8,79,30.15,5.0,Calm,Calm,-,N/A,,Haze,0,2013-02-22 10:54:00
5:10 AM,12.2,6.8,79,30.14,5.0,Calm,Calm,-,N/A,,Haze,0,2013-02-22 11:10:00
5:30 AM,12.2,8.6,85,30.13,5.0,Calm,Calm,-,N/A,,Overcast,0,2013-02-22 11:30:00
5:50 AM,12.2,8.6,85,30.13,5.0,Calm,Calm,-,N/A,,Overcast,0,2013-02-22 11:50:00
6:10 AM,12.2,10.4,92,30.12,5.0,Calm,Calm,-,N/A,,Overcast,0,2013-02-22 12:10:00
6:30 AM,12.2,10.4,92,30.11,4.0,Calm,Calm,-,N/A,,Overcast,0,2013-02-22 12:30:00
6:50 AM,12.2,10.4,92,30.10,3.0,Calm,Calm,-,N/A,,Overcast,0,2013-02-22 12:50:00
7:10 AM,12.2,10.4,92,30.10,4.0,Calm,Calm,-,N/A,,Overcast,0,2013-02-22 13:10:00
7:30 AM,12.2,10.4,92,30.09,4.0,Calm,Calm,-,N/A,,Overcast,0,2013-02-22 13:30:00
7:50 AM,14.0,10.4,86,30.08,4.0,NE,4.6,-,N/A,,Overcast,40,2013-02-22 13:50:00
8:10 AM,15.8,12.2,86,30.07,10.0,Calm,Calm,-,N/A,,Overcast,0,2013-02-22 14:10:00
8:30 AM,15.8,12.2,86,30.06,10.0,NE,3.5,-,N/A,,Overcast,40,2013-02-22 14:30:00
8:50 AM,17.6,14.0,86,30.05,10.0,ENE,3.5,-,N/A,,Overcast,60,2013-02-22 14:50:00
9:10 AM,17.6,15.8,93,30.05,10.0,Calm,Calm,-,N/A,,Overcast,0,2013-02-22 15:10:00
9:30 AM,19.4,17.6,93,30.05,10.0,NE,3.5,-,N/A,,Overcast,50,2013-02-22 15:30:00
9:50 AM,21.2,17.6,86,30.04,10.0,ENE,3.5,-,N/A,,Overcast,70,2013-02-22 15:50:00
10:30 AM,21.2,19.4,93,30.03,10.0,ENE,4.6,-,N/A,,Overcast,70,2013-02-22 16:30:00
10:50 AM,23.0,19.4,86,30.03,10.0,Calm,Calm,-,N/A,,Overcast,0,2013-02-22 16:50:00
11:10 AM,24.8,19.4,80,30.02,10.0,Calm,Calm,-,N/A,,Overcast,0,2013-02-22 17:10:00
11:30 AM,24.8,21.2,86,30.02,10.0,East,3.5,-,N/A,,Overcast,90,2013-02-22 17:30:00
12:10 PM,26.6,23.0,86,30.00,10.0,ENE,5.8,-,N/A,,Overcast,70,2013-02-22 18:10:00
12:30 PM,28.4,21.2,74,29.99,10.0,NE,4.6,-,N/A,,Overcast,40,2013-02-22 18:30:00
12:50 PM,26.6,21.2,80,29.99,10.0,NE,3.5,-,N/A,,Overcast,50,2013-02-22 18:50:00
1:10 PM,26.6,21.2,80,29.98,10.0,East,3.5,-,N/A,,Overcast,90,2013-02-22 19:10:00
1:30 PM,28.4,23.0,80,29.97,10.0,Calm,Calm,-,N/A,,Overcast,0,2013-02-22 19:30:00
1:50 PM,28.4,21.2,74,29.97,10.0,NE,5.8,-,N/A,,Overcast,40,2013-02-22 19:50:00
2:10 PM,28.4,21.2,74,29.97,10.0,NNE,3.5,-,N/A,,Overcast,20,2013-02-22 20:10:00
2:30 PM,30.2,21.2,69,29.95,10.0,NNE,6.9,-,N/A,Snow,Light Snow,30,2013-02-22 20:30:00
2:50 PM,30.2,23.0,75,29.95,4.0,NNE,5.8,-,N/A,Snow,Light Snow,30,2013-02-22 20:50:00
3:10 PM,33.8,24.8,70,29.94,10.0,Calm,Calm,-,N/A,Snow,Light Snow,0,2013-02-22 21:10:00
3:30 PM,30.2,21.2,69,29.94,10.0,NNE,5.8,-,N/A,,Mostly Cloudy,20,2013-02-22 21:30:00
3:50 PM,30.2,21.2,69,29.94,10.0,Calm,Calm,-,N/A,,Overcast,0,2013-02-22 21:50:00
4:10 PM,28.4,21.2,74,29.93,10.0,NE,3.5,-,N/A,,Overcast,40,2013-02-22 22:10:00
4:30 PM,28.4,21.2,74,29.93,10.0,NNE,4.6,-,N/A,,Overcast,20,2013-02-22 22:30:00
4:50 PM,26.6,21.2,80,29.92,10.0,NE,3.5,-,N/A,,Overcast,50,2013-02-22 22:50:00
5:10 PM,26.6,21.2,80,29.92,10.0,Calm,Calm,-,N/A,,Overcast,0,2013-02-22 23:10:00
5:30 PM,26.6,21.2,80,29.92,10.0,North,4.6,-,N/A,,Overcast,360,2013-02-22 23:30:00
5:50 PM,26.6,21.2,80,29.92,10.0,North,4.6,-,N/A,,Overcast,10,2013-02-22 23:50:00
6:10 PM,26.6,21.2,80,29.92,10.0,Calm,Calm,-,N/A,,Overcast,0,2013-02-23 00:10:00
6:30 PM,26.6,21.2,80,29.92,10.0,Calm,Calm,-,N/A,,Overcast,0,2013-02-23 00:30:00
6:50 PM,26.6,21.2,80,29.92,10.0,Calm,Calm,-,N/A,,Overcast,0,2013-02-23 00:50:00
7:10 PM,24.8,19.4,80,29.92,10.0,Calm,Calm,-,N/A,,Mostly Cloudy,0,2013-02-23 01:10:00
7:30 PM,24.8,19.4,80,29.91,10.0,NE,3.5,-,N/A,,Overcast,40,2013-02-23 01:30:00
7:50 PM,24.8,19.4,80,29.92,10.0,Calm,Calm,-,N/A,,Overcast,0,2013-02-23 01:50:00
8:10 PM,24.8,19.4,80,29.91,10.0,Calm,Calm,-,N/A,,Overcast,0,2013-02-23 02:10:00
8:30 PM,24.8,19.4,80,29.91,7.0,Calm,Calm,-,N/A,Snow,Light Snow,0,2013-02-23 02:30:00
8:50 PM,23.0,17.6,80,29.91,10.0,Calm,Calm,-,N/A,Snow,Light Snow,0,2013-02-23 02:50:00
9:10 PM,21.2,17.6,86,29.90,10.0,Calm,Calm,-,N/A,,Overcast,0,2013-02-23 03:10:00
9:30 PM,19.4,15.8,86,29.90,10.0,Calm,Calm,-,N/A,,Overcast,0,2013-02-23 03:30:00
9:50 PM,19.4,14.0,80,29.90,10.0,Calm,Calm,-,N/A,,Overcast,0,2013-02-23 03:50:00
10:10 PM,17.6,12.2,79,29.89,10.0,Calm,Calm,-,N/A,,Overcast,0,2013-02-23 04:10:00
10:30 PM,15.8,10.4,79,29.89,10.0,Calm,Calm,-,N/A,,Overcast,0,2013-02-23 04:30:00
10:50 PM,15.8,12.2,86,29.90,5.0,Calm,Calm,-,N/A,Snow,Light Snow,0,2013-02-23 04:50:00
11:10 PM,17.6,12.2,79,29.89,7.0,Calm,Calm,-,N/A,Snow,Light Snow,0,2013-02-23 05:10:00
11:30 PM,17.6,14.0,86,29.89,5.0,Calm,Calm,-,N/A,Snow,Light Snow,0,2013-02-23 05:30:00
11:50 PM,17.6,14.0,86,29.88,10.0,Calm,Calm,-,N/A,,Overcast,0,2013-02-23 05:50:00